Location: Newark
(41.6500°N, 71.4833°W)
Time: 10:22:50
(UTC+00:00)

Courier 1B - Pass Details

Date: 20 January 2020
Orbit: 962 x 1209 km, 28.3° (Epoch: 22 February)

Event Time Altitude Azimuth Distance (km) Brightness Sun altitude
Rises 09:23:59 0° 227° (SW) 3,993 - -30.4°
Reaches altitude 10° 09:27:23 10° 214° (SSW) 3,068 - -29.7°
Exits shadow 09:29:53 18° 197° (SSW) 2,544 9.5 -29.3°
Maximum altitude 09:33:08 23° 164° (SSE) 2,266 9.5 -28.7°
Drops below altitude 10° 09:39:01 10° 115° (ESE) 3,140 11.0 -27.6°
Sets 09:42:31 0° 102° (ESE) 4,108 12.0 -26.9°
